Location: *
(51.0333°S, 178.4667°E)
Time: 16:20:20
(UTC+00:00)

Cosmos 724 - Pass Details

Date: 15 November 2019
Orbit: 861 x 934 km, 65.6° (Epoch: 14 December)

Event Time Altitude Azimuth Distance (km) Brightness Sun altitude
Exits shadow 10:33:25 25° 344° (NNW) 1,721 5.3 -18.5°
Maximum altitude 10:36:53 62° 57° (ENE) 1,005 4.3 -18.6°
Drops below altitude 10° 10:42:52 10° 136° (SE) 2,615 7.1 -18.9°
Sets 10:45:27 0° 139° (SE) 3,573 7.9 -19.0°
